N9613C KMIA-KBTL

Flight info

Callsign N9613C
Flight time N/A
Altitude 8000
Route PHK MLB V3 OMN V51 CRG V243 AYS V157 DBN V267 CORCE V311 HCH V51 IIU V53 MOUTH V221 FWA V11 EDGEE
Aircraft P28R/L-SFGDY/G

Departure

Time 2026-05-04 15:19
Airport Miami International Airport (KMIA)

Arrival

Time N/A
Airport Battle Creek Executive Airport at Kellogg Field (KBTL)
Time Latitude Longitude Altitude Speed Heading
2026-05-04 14:58 25.80530 -80.29008 6 ft 0 kts 177°
2026-05-04 15:14 25.80513 -80.29007 7 ft 2 kts 175°
2026-05-04 15:14 25.80504 -80.29006 6 ft 1 kts 175°
2026-05-04 15:15 25.80496 -80.29005 6 ft 0 kts 174°
2026-05-04 15:16 25.80443 -80.29140 7 ft 18 kts 268°
2026-05-04 15:16 25.80436 -80.29298 7 ft 21 kts 268°
2026-05-04 15:16 25.80403 -80.29508 7 ft 0 kts 169°
2026-05-04 15:18 25.80397 -80.29507 6 ft 4 kts 169°
2026-05-04 15:18 25.80344 -80.29451 6 ft 16 kts 104°
2026-05-04 15:19 25.80341 -80.28761 13 ft 83 kts 83°
2026-05-04 15:19 25.80364 -80.28046 131 ft 99 kts 86°
2026-05-04 15:19 25.80342 -80.26558 609 ft 100 kts 85°
2026-05-04 15:20 25.80348 -80.25688 534 ft 124 kts 82°
2026-05-04 15:20 25.80405 -80.24816 840 ft 107 kts 79°
2026-05-04 15:20 25.80651 -80.24039 893 ft 112 kts 45°
2026-05-04 15:20 25.81349 -80.23718 1062 ft 106 kts
2026-05-04 15:21 25.82030 -80.23716 1406 ft 89 kts 359°
2026-05-04 15:21 25.82708 -80.23734 1463 ft 103 kts
2026-05-04 15:21 25.83892 -80.22710 1442 ft 123 kts 69°
2026-05-04 15:22 25.83778 -80.21798 1666 ft 118 kts 113°
2026-05-04 15:22 25.83260 -80.21070 1743 ft 124 kts 123°
2026-05-04 15:22 25.82166 -80.19706 2088 ft 115 kts 124°
2026-05-04 15:23 25.81621 -80.19022 2186 ft 118 kts 124°
2026-05-04 15:23 25.81095 -80.18354 2343 ft 115 kts 125°
2026-05-04 15:23 25.80553 -80.17660 2444 ft 118 kts 124°
2026-05-04 15:23 25.80208 -80.16866 2484 ft 119 kts 89°
2026-05-04 15:24 25.81087 -80.15567 2739 ft 106 kts 22°
2026-05-04 15:24 25.82528 -80.15453 2852 ft 118 kts 328°
2026-05-04 15:25 25.83095 -80.16054 3057 ft 108 kts 317°
2026-05-04 15:25 25.83675 -80.16631 3060 ft 117 kts 330°
2026-05-04 15:25 25.84392 -80.16962 3221 ft 106 kts 351°
2026-05-04 15:26 25.85878 -80.17419 3398 ft 110 kts 341°
2026-05-04 15:26 25.86590 -80.17736 3481 ft 111 kts 339°
2026-05-04 15:26 25.88008 -80.18457 3658 ft 112 kts 336°
2026-05-04 15:27 25.88693 -80.18825 3790 ft 109 kts 335°
2026-05-04 15:27 25.90102 -80.19602 3966 ft 108 kts 334°
2026-05-04 15:28 25.91528 -80.20400 4060 ft 115 kts 335°
2026-05-04 15:28 25.92229 -80.20795 4175 ft 113 kts 333°
2026-05-04 15:28 25.93666 -80.21598 4316 ft 113 kts 335°
2026-05-04 15:29 25.94370 -80.21986 4368 ft 115 kts 335°
2026-05-04 15:30 25.97230 -80.23568 4646 ft 114 kts 332°
2026-05-04 15:30 25.99382 -80.24768 4825 ft 115 kts 332°
2026-05-04 15:31 26.00842 -80.25590 4915 ft 117 kts 332°
2026-05-04 15:31 26.01543 -80.25990 5024 ft 114 kts 331°
2026-05-04 15:32 26.03721 -80.27207 5147 ft 116 kts 332°
2026-05-04 15:32 26.05156 -80.28013 5271 ft 115 kts 331°
2026-05-04 15:33 26.06582 -80.28811 5399 ft 113 kts 330°
2026-05-04 15:34 26.08771 -80.30045 5489 ft 117 kts 331°
2026-05-04 15:34 26.09407 -80.30400 5517 ft 118 kts 331°
2026-05-04 15:34 26.10877 -80.31223 5637 ft 115 kts 331°
2026-05-04 15:35 26.12345 -80.32044 5709 ft 116 kts 332°
2026-05-04 15:35 26.13043 -80.32425 5356 ft 118 kts 334°
2026-05-04 15:35 26.13786 -80.32845 4920 ft 129 kts 333°
2026-05-04 15:36 26.15205 -80.33651 5101 ft 122 kts 332°
2026-05-04 15:36 26.15945 -80.34071 5242 ft 111 kts 332°
2026-05-04 15:36 26.16659 -80.34469 5220 ft 120 kts 332°
2026-05-04 15:37 26.17388 -80.34871 5318 ft 114 kts 332°
2026-05-04 15:37 26.18114 -80.35274 5319 ft 120 kts 333°
2026-05-04 15:37 26.18861 -80.35689 5390 ft 115 kts 332°
2026-05-04 15:37 26.19580 -80.36096 5415 ft 119 kts 332°
2026-05-04 15:38 26.20317 -80.36510 5483 ft 116 kts 332°
2026-05-04 15:38 26.21042 -80.36921 5496 ft 119 kts 331°
2026-05-04 15:38 26.21775 -80.37338 5581 ft 115 kts 331°
2026-05-04 15:38 26.22510 -80.37752 5605 ft 118 kts 331°
2026-05-04 15:39 26.23231 -80.38159 5694 ft 114 kts 331°
2026-05-04 15:39 26.23948 -80.38560 5742 ft 116 kts 331°
2026-05-04 15:39 26.25345 -80.39346 5983 ft 106 kts 330°
2026-05-04 15:40 26.26032 -80.39740 5991 ft 112 kts 330°
2026-05-04 15:40 26.26700 -80.40118 6138 ft 105 kts 330°
2026-05-04 15:40 26.27381 -80.40510 6148 ft 112 kts 330°
2026-05-04 15:40 26.28059 -80.40899 6249 ft 109 kts 329°
2026-05-04 15:41 26.28742 -80.41293 6291 ft 112 kts 329°
2026-05-04 15:41 26.29436 -80.41692 6374 ft 110 kts 329°
2026-05-04 15:41 26.30128 -80.42088 6431 ft 112 kts 328°
2026-05-04 15:41 26.30819 -80.42483 6515 ft 110 kts 328°
2026-05-04 15:42 26.31508 -80.42876 6563 ft 112 kts 328°
2026-05-04 15:42 26.32199 -80.43267 6636 ft 111 kts 328°
2026-05-04 15:42 26.32890 -80.43662 6683 ft 112 kts 329°
2026-05-04 15:42 26.33581 -80.44053 6764 ft 110 kts 329°
2026-05-04 15:43 26.34271 -80.44447 6796 ft 113 kts 329°
2026-05-04 15:43 26.34974 -80.44845 6869 ft 111 kts 329°
2026-05-04 15:43 26.35663 -80.45234 6920 ft 112 kts 329°
2026-05-04 15:43 26.36368 -80.45631 6974 ft 112 kts 329°
2026-05-04 15:44 26.37069 -80.46027 7023 ft 112 kts 328°
2026-05-04 15:44 26.37766 -80.46421 7066 ft 113 kts 328°
2026-05-04 15:44 26.38470 -80.46822 7107 ft 114 kts 328°
2026-05-04 15:44 26.39181 -80.47224 7165 ft 113 kts 328°
2026-05-04 15:45 26.39880 -80.47619 7209 ft 113 kts 328°
2026-05-04 15:45 26.40581 -80.48013 7289 ft 111 kts 327°
2026-05-04 15:45 26.41284 -80.48415 7321 ft 113 kts 328°
2026-05-04 15:45 26.41978 -80.48809 7386 ft 112 kts 328°
2026-05-04 15:46 26.42685 -80.49207 7427 ft 113 kts 327°
2026-05-04 15:46 26.43398 -80.49612 7435 ft 117 kts 328°
2026-05-04 15:46 26.44134 -80.50036 7467 ft 117 kts 330°
2026-05-04 15:46 26.44853 -80.50446 7532 ft 116 kts 330°
2026-05-04 15:47 26.45573 -80.50851 7580 ft 115 kts 330°
2026-05-04 15:47 26.46294 -80.51257 7635 ft 113 kts 330°
2026-05-04 15:47 26.46988 -80.51643 7689 ft 112 kts 327°
2026-05-04 15:47 26.47686 -80.52037 7709 ft 113 kts 328°
2026-05-04 15:48 26.48392 -80.52438 7737 ft 113 kts 328°
2026-05-04 15:48 26.49096 -80.52838 7767 ft 114 kts 327°
2026-05-04 15:48 26.50512 -80.53641 7821 ft 115 kts 327°
2026-05-04 15:49 26.51215 -80.54042 7853 ft 115 kts 327°
2026-05-04 15:49 26.51936 -80.54452 7867 ft 116 kts 328°
2026-05-04 15:49 26.52667 -80.54872 7890 ft 118 kts 327°
2026-05-04 15:49 26.53392 -80.55281 7948 ft 115 kts 328°
2026-05-04 15:50 26.54117 -80.55694 7957 ft 117 kts 328°
2026-05-04 15:50 26.54840 -80.56102 8005 ft 116 kts 328°
2026-05-04 15:50 26.55560 -80.56512 8019 ft 117 kts 329°
2026-05-04 15:50 26.56287 -80.56923 8042 ft 118 kts 328°
2026-05-04 15:51 26.57031 -80.57345 8036 ft 120 kts 329°
2026-05-04 15:51 26.57778 -80.57765 8036 ft 120 kts 327°
2026-05-04 15:51 26.58530 -80.58190 8032 ft 121 kts 328°
2026-05-04 15:51 26.59263 -80.58610 8034 ft 118 kts 328°
2026-05-04 15:52 26.59988 -80.59022 8037 ft 116 kts 329°
2026-05-04 15:52 26.60708 -80.59431 8039 ft 115 kts 328°
2026-05-04 15:52 26.61426 -80.59838 8038 ft 114 kts 328°
2026-05-04 15:52 26.62132 -80.60241 8039 ft 113 kts 328°
2026-05-04 15:53 26.62834 -80.60638 8039 ft 113 kts 328°
2026-05-04 15:53 26.63536 -80.61038 8038 ft 113 kts 328°
2026-05-04 15:53 26.64239 -80.61438 8037 ft 112 kts 328°
2026-05-04 15:53 26.64935 -80.61838 8038 ft 112 kts 328°
2026-05-04 15:54 26.65634 -80.62233 8037 ft 112 kts 328°
2026-05-04 15:54 26.66332 -80.62633 8038 ft 112 kts 328°
2026-05-04 15:54 26.67036 -80.63032 8036 ft 112 kts 329°
2026-05-04 15:54 26.67734 -80.63432 8039 ft 112 kts 328°
2026-05-04 15:55 26.68432 -80.63829 8036 ft 112 kts 329°
2026-05-04 15:55 26.69130 -80.64226 8037 ft 112 kts 328°
2026-05-04 15:55 26.69830 -80.64623 8034 ft 112 kts 329°
2026-05-04 15:55 26.70528 -80.65024 8036 ft 113 kts 328°
2026-05-04 15:56 26.71235 -80.65424 8038 ft 113 kts 328°
2026-05-04 15:56 26.71938 -80.65825 8037 ft 113 kts 327°
2026-05-04 15:56 26.72642 -80.66226 8038 ft 113 kts 327°
2026-05-04 15:56 26.73345 -80.66625 8037 ft 113 kts 328°
2026-05-04 15:57 26.74048 -80.67028 8037 ft 113 kts 328°
2026-05-04 15:57 26.74751 -80.67428 8039 ft 113 kts 328°
2026-05-04 15:57 26.75457 -80.67830 8039 ft 113 kts 327°
2026-05-04 15:57 26.76170 -80.68236 8042 ft 113 kts 327°
2026-05-04 15:58 26.76876 -80.68639 8039 ft 113 kts 328°
2026-05-04 15:58 26.77582 -80.69042 8039 ft 113 kts 328°
2026-05-04 15:58 26.78320 -80.69373 8039 ft 115 kts 343°
2026-05-04 15:58 26.79115 -80.69528 8042 ft 116 kts 345°
2026-05-04 15:59 26.79913 -80.69667 8041 ft 116 kts 346°
2026-05-04 15:59 26.80713 -80.69805 8041 ft 116 kts 346°
2026-05-04 15:59 26.81514 -80.69939 8041 ft 116 kts 346°
2026-05-04 15:59 26.82324 -80.70074 8038 ft 116 kts 346°
2026-05-04 16:00 26.83123 -80.70209 8038 ft 116 kts 346°
2026-05-04 16:00 26.83921 -80.70342 8038 ft 116 kts 346°
2026-05-04 16:00 26.84724 -80.70476 8037 ft 116 kts 345°
2026-05-04 16:00 26.85523 -80.70611 8038 ft 116 kts 346°
2026-05-04 16:01 26.86326 -80.70744 8040 ft 117 kts 345°
2026-05-04 16:01 26.87142 -80.70881 8038 ft 117 kts 345°
2026-05-04 16:01 26.87940 -80.71016 8042 ft 117 kts 346°
2026-05-04 16:01 26.88757 -80.71151 8045 ft 117 kts 346°
2026-05-04 16:02 26.89563 -80.71286 8043 ft 117 kts 347°
2026-05-04 16:02 26.90367 -80.71422 8040 ft 117 kts 347°
2026-05-04 16:02 26.91988 -80.71688 8042 ft 116 kts 347°
2026-05-04 16:03 26.92791 -80.71824 8043 ft 116 kts 346°
2026-05-04 16:03 26.93592 -80.71956 8044 ft 116 kts 346°
2026-05-04 16:03 26.94395 -80.72089 8044 ft 116 kts 346°
2026-05-04 16:03 26.95208 -80.72226 8042 ft 116 kts 346°
2026-05-04 16:04 26.96010 -80.72360 8046 ft 116 kts 347°
2026-05-04 16:04 26.97617 -80.72625 8048 ft 116 kts 346°
2026-05-04 16:04 26.98419 -80.72759 8048 ft 116 kts 346°
2026-05-04 16:05 26.99232 -80.72894 8047 ft 116 kts 346°
2026-05-04 16:05 27.00034 -80.73030 8047 ft 116 kts 346°
2026-05-04 16:05 27.01634 -80.73298 8046 ft 116 kts 346°
2026-05-04 16:06 27.02437 -80.73433 8047 ft 116 kts 347°
2026-05-04 16:06 27.04837 -80.73831 8048 ft 116 kts 346°
2026-05-04 16:07 27.05646 -80.73966 8049 ft 116 kts 346°
2026-05-04 16:07 27.08041 -80.74367 8045 ft 116 kts 346°
2026-05-04 16:08 27.08849 -80.74500 8048 ft 116 kts 346°
2026-05-04 16:08 27.11258 -80.74905 8049 ft 116 kts 346°
2026-05-04 16:09 27.12862 -80.75174 8046 ft 116 kts 346°
2026-05-04 16:09 27.14461 -80.75440 8049 ft 115 kts 345°
2026-05-04 16:10 27.16063 -80.75709 8051 ft 115 kts 346°
2026-05-04 16:11 27.18444 -80.76107 8060 ft 115 kts 346°
2026-05-04 16:11 27.19240 -80.76241 8053 ft 115 kts 346°
2026-05-04 16:12 27.21636 -80.76643 8059 ft 116 kts 346°
2026-05-04 16:12 27.24044 -80.77045 8058 ft 116 kts 345°
2026-05-04 16:13 27.25658 -80.77316 8058 ft 116 kts 346°
2026-05-04 16:13 27.27263 -80.77584 8059 ft 116 kts 346°
2026-05-04 16:14 27.28863 -80.77854 8059 ft 116 kts 346°
2026-05-04 16:14 27.30472 -80.78126 8060 ft 116 kts 346°
2026-05-04 16:15 27.32887 -80.78529 8063 ft 117 kts 346°
2026-05-04 16:16 27.34512 -80.78801 8069 ft 117 kts 346°
2026-05-04 16:16 27.36944 -80.79209 8060 ft 117 kts 345°
2026-05-04 16:17 27.38573 -80.79481 8057 ft 117 kts 346°
2026-05-04 16:18 27.40997 -80.79891 8057 ft 117 kts 346°
2026-05-04 16:18 27.41806 -80.80027 8055 ft 117 kts 346°
2026-05-04 16:19 27.44237 -80.80435 8058 ft 117 kts 346°
2026-05-04 16:19 27.45879 -80.80594 8057 ft 118 kts 353°
2026-05-04 16:20 27.48344 -80.80798 8059 ft 117 kts 348°
2026-05-04 16:20 27.49970 -80.81008 8059 ft 117 kts 347°
2026-05-04 16:21 27.52393 -80.81376 8054 ft 116 kts 347°
2026-05-04 16:22 27.54002 -80.81636 8053 ft 116 kts 347°
2026-05-04 16:22 27.56425 -80.82036 8054 ft 117 kts 347°
2026-05-04 16:23 27.58841 -80.82438 8053 ft 117 kts 346°
2026-05-04 16:24 27.62067 -80.82981 8056 ft 117 kts 346°
2026-05-04 16:25 27.63685 -80.83253 8056 ft 117 kts 346°
2026-05-04 16:26 27.66931 -80.83803 8056 ft 117 kts 347°
2026-05-04 16:26 27.69362 -80.84211 8057 ft 117 kts 346°
2026-05-04 16:27 27.70979 -80.84483 8057 ft 116 kts 346°
2026-05-04 16:28 27.73397 -80.84893 8059 ft 116 kts 346°
2026-05-04 16:28 27.75816 -80.85304 8061 ft 117 kts 346°
2026-05-04 16:29 27.79069 -80.85853 8062 ft 117 kts 346°
2026-05-04 16:30 27.81499 -80.86262 8066 ft 117 kts 346°
2026-05-04 16:31 27.83111 -80.86536 8066 ft 117 kts 346°
2026-05-04 16:31 27.85531 -80.86944 8064 ft 116 kts 345°
2026-05-04 16:32 27.87947 -80.87354 8069 ft 116 kts 345°
2026-05-04 16:33 27.89546 -80.87629 8071 ft 116 kts 346°
2026-05-04 16:33 27.91154 -80.87902 8069 ft 117 kts 346°
2026-05-04 16:34 27.92769 -80.88175 8067 ft 116 kts 346°
2026-05-04 16:34 27.93577 -80.88314 8070 ft 116 kts 346°
2026-05-04 16:35 27.96042 -80.88734 7967 ft 123 kts 347°
2026-05-04 16:35 27.98540 -80.89153 7960 ft 118 kts 346°
2026-05-04 16:36 27.99358 -80.89292 7961 ft 118 kts 347°
2026-05-04 16:36 28.00971 -80.89565 7963 ft 117 kts 346°
2026-05-04 16:37 28.02588 -80.89842 7963 ft 117 kts 346°
2026-05-04 16:37 28.03394 -80.89980 7966 ft 117 kts 346°
2026-05-04 16:37 28.05012 -80.90254 7962 ft 116 kts 347°
2026-05-04 16:38 28.06611 -80.90523 7962 ft 115 kts 344°
2026-05-04 16:39 28.09012 -80.90929 7960 ft 116 kts 345°
2026-05-04 16:39 28.10612 -80.91201 7957 ft 116 kts 346°
2026-05-04 16:40 28.12204 -80.91484 7968 ft 116 kts 345°
2026-05-04 16:40 28.13811 -80.91754 7962 ft 117 kts 347°
2026-05-04 16:41 28.15423 -80.92032 7965 ft 116 kts 346°
2026-05-04 16:41 28.17830 -80.92448 7962 ft 116 kts 346°
2026-05-04 16:42 28.20235 -80.92860 7963 ft 115 kts 344°
2026-05-04 16:43 28.21829 -80.93130 7967 ft 115 kts 347°
2026-05-04 16:43 28.23425 -80.93398 7969 ft 116 kts 347°
2026-05-04 16:43 28.24228 -80.93533 7964 ft 116 kts 346°
2026-05-04 16:44 28.27393 -80.94074 7975 ft 114 kts 347°
2026-05-04 16:45 28.28979 -80.94341 7979 ft 116 kts 347°
2026-05-04 16:46 28.31394 -80.94754 7965 ft 116 kts 345°
2026-05-04 16:46 28.32988 -80.95027 7968 ft 116 kts 346°
2026-05-04 16:47 28.34586 -80.95301 7968 ft 116 kts 346°
2026-05-04 16:47 28.36193 -80.95576 7968 ft 116 kts 347°
2026-05-04 16:48 28.38551 -80.95978 7965 ft 112 kts 346°
2026-05-04 16:48 28.39324 -80.96112 7961 ft 111 kts 346°
2026-05-04 16:49 28.40856 -80.96373 7971 ft 111 kts 345°
2026-05-04 16:49 28.42393 -80.96640 7972 ft 113 kts 346°
2026-05-04 16:50 28.43964 -80.96912 7970 ft 113 kts 346°